User: anonymous   Login
Location: Kott?ru
(16.6209°N, 80.6208°E)
Time: 02:57:15
(UTC+00:00)
Language:

ASTRO E2 - Orbit

View from above orbital plane
View from above orbital plane
View from above satellite
View from above satellite

Ground track
Ground track

The orbit data is extracted from the following two-line orbital elements,

1 28773U 05025A   20339.49360278  .00002068  00000-0  95190-4 0  9999
2 28773  31.3834 350.7925 0004487 120.8762 239.2327 15.17896288849791
Epoch (UTC): 04 December 2020 11:50:47
Eccentricity: 0.0004487
inclination: 31.3834°
perigee height: 509 km
apogee height: 515 km
right ascension of ascending node: 350.7925°
argument of perigee: 120.8762°
revolutions per day: 15.17896288
mean anomaly at epoch: 239.2327°
orbit number at epoch: 84979

The dashed part of the orbit path shows where the satellite is in the earth's shadow,  

DLR